Location: All Nations United Methodist Church
(33.0215°N, 96.7483°W)
Time: 15:35:10
(UTC+00:00)

Lacrosse 5 rocket - Pass Details

Date: 24 January 2021
Orbit: 465 x 630 km, 57.0° (Epoch: 06 March)

Event Time Altitude Azimuth Distance (km) Brightness Sun altitude
Exits shadow 12:53:37 - 312° (NW) 1,916 3.5 -7.4°
Reaches altitude 10° 12:54:09 10° 310° (NW) 1,698 3.2 -7.3°
Maximum altitude 12:57:50 48° 235° (SW) 633 1.4 -6.5°
Drops below altitude 10° 13:01:21 10° 160° (SSE) 1,626 4.3 -5.8°
Sets 13:03:29 0° 155° (SSE) 2,487 5.4 -5.4°
